New York Downtown Manhattan/w, NY

1:30 PM EDT on August 18, 2019 (GMT -0400)
New York Downtown Manhattan/w

Weather History for KJRB - June, 2019

Change the Weather History Date:

Monday, June 10, 2019

  Actual Average (KEWR) Record (KEWR)
Temperature  
Mean Temperature 65 °F -  
Max Temperature 69 °F 82 °F 99 °F (2008)
Min Temperature 61 °F 61 °F 49 °F (1957)
Growing Degree Days 15 (Base 50)    
Moisture  
Dew Point 63 °F    
Average Humidity 90    
Maximum Humidity 100    
Minimum Humidity 65    
Precipitation  
Precipitation 0.34 in - - ()
Sea Level Pressure  
Sea Level Pressure 30.03 in    
Wind  
Wind Speed 10 mph ()    
Max Wind Speed 16 mph    
Max Gust Speed 21 mph    
Visibility 4.9 miles    
Events Rain    
Averages and records for this station are not official NWS values.
T = Trace of Precipitation, MM = Missing Value Source: Averaged Metar Reports

Daily Weather History Graph

Daily Weather History Graph

Search for Another Location

Airport or City:

Astronomy

Jun. 10, 2019 Rise Set
Actual Time 5:24 AM EDT 8:26 PM EDT
Civil Twilight 4:51 AM EDT 8:59 PM EDT
Nautical Twilight 4:09 AM EDT 9:41 PM EDT
Astronomical Twilight 3:19 AM EDT 10:31 PM EDT
Moon 1:11 PM EDT (6/10) 1:37 AM EDT (6/10)
Length of Visible Light 16h 08m
Length of Day
15h 01m
First Quarter, 55% of the Moon is Illuminated
Jun 10
First Quarter
Jun 17
Full
Jun 25
Last Quarter
Jul 2
New
Jul 9
First Quarter

Hourly Weather History & Observations

Time (EDT) Temp. Dew Point Humidity Pressure Visibility Wind Dir Wind Speed Gust Speed Precip Events Conditions
12:56 AM 62.1 °F 50.0 °F 65% 30.22 in 10.0 mi NNE 12.7 mph - N/A   Clear
1:56 AM 61.0 °F 50.0 °F 67% 30.22 in 10.0 mi NE 11.5 mph - N/A   Clear
2:56 AM 61.0 °F 51.1 °F 70% 30.20 in 10.0 mi NNE 12.7 mph - N/A   Clear
3:56 AM 61.0 °F 52.0 °F 72% 30.18 in 10.0 mi NE 12.7 mph - N/A   Overcast
4:36 AM 62.6 °F 55.4 °F 77% 30.18 in 10.0 mi NE 11.5 mph - N/A   Overcast
4:48 AM 62.6 °F 55.4 °F 77% 30.17 in 10.0 mi NNE 12.7 mph - N/A   Overcast
4:56 AM 62.1 °F 55.0 °F 78% 30.17 in 10.0 mi NNE 11.5 mph - N/A   Overcast
5:07 AM 62.6 °F 55.4 °F 77% 30.17 in 10.0 mi NNE 13.8 mph - N/A   Overcast
5:56 AM 62.1 °F 57.0 °F 84% 30.16 in 10.0 mi NNE 13.8 mph - N/A   Overcast
6:34 AM 62.6 °F 57.2 °F 82% 30.16 in 10.0 mi NE 15.0 mph - N/A   Overcast
6:56 AM 62.1 °F 57.9 °F 86% 30.15 in 10.0 mi NE 15.0 mph - N/A   Overcast
7:56 AM 63.0 °F 57.9 °F 84% 30.15 in 10.0 mi NE 13.8 mph - N/A   Overcast
8:10 AM 62.6 °F 57.2 °F 82% 30.14 in 9.0 mi NNE 15.0 mph - N/A   Overcast
8:33 AM 62.6 °F 59.0 °F 88% 30.14 in 5.0 mi NE 13.8 mph - N/A   Overcast
8:56 AM 63.0 °F 60.1 °F 90% 30.14 in 4.0 mi NE 13.8 mph - N/A   Mostly Cloudy
9:56 AM 64.9 °F 60.1 °F 84% 30.11 in 10.0 mi NE 16.1 mph - N/A   Overcast
10:56 AM 64.0 °F 60.1 °F 87% 30.10 in 6.0 mi NE 13.8 mph - N/A   Overcast
11:33 AM 64.4 °F 60.8 °F 88% 30.09 in 1.8 mi NE 13.8 mph - 0.01 in Rain Light Rain
11:45 AM 64.4 °F 60.8 °F 88% 30.08 in 2.0 mi NE 15.0 mph - 0.02 in   Overcast
11:56 AM 64.0 °F 62.1 °F 93% 30.08 in 2.5 mi NE 12.7 mph - 0.03 in   Overcast
12:11 PM 64.4 °F 62.6 °F 94% 30.07 in 1.5 mi NE 13.8 mph - 0.01 in   Overcast
12:20 PM 64.4 °F 62.6 °F 94% 30.07 in 2.0 mi NE 15.0 mph - 0.02 in   Overcast
12:30 PM 64.4 °F 62.6 °F 94% 30.06 in 7.0 mi NE 12.7 mph - 0.02 in   Overcast
12:42 PM 64.4 °F 62.6 °F 94% 30.06 in 2.5 mi NE 12.7 mph - 0.03 in   Overcast
12:56 PM 64.9 °F 63.0 °F 93% 30.06 in 2.5 mi NE 12.7 mph - 0.03 in   Overcast
1:14 PM 64.4 °F 62.6 °F 94% 30.04 in 4.0 mi NE 15.0 mph - N/A   Overcast
1:24 PM 64.4 °F 62.6 °F 94% 30.04 in 1.8 mi NE 13.8 mph - 0.01 in   Overcast
1:33 PM 64.4 °F 62.6 °F 94% 30.03 in 1.2 mi NNE 13.8 mph - 0.05 in Rain Light Rain
1:43 PM 64.4 °F 64.4 °F 100% 30.03 in 2.5 mi NE 13.8 mph - 0.07 in Rain Light Rain
1:56 PM 64.9 °F 64.0 °F 97% 30.03 in 2.0 mi NE 12.7 mph - 0.09 in Rain Light Rain
2:26 PM 66.2 °F 64.4 °F 94% 30.00 in 1.8 mi NNE 12.7 mph - 0.09 in Rain Light Rain
2:35 PM 66.2 °F 64.4 °F 94% 29.99 in 3.0 mi NNE 15.0 mph - 0.10 in Rain Light Rain
2:45 PM 66.2 °F 64.4 °F 94% 29.99 in 2.0 mi NE 13.8 mph - 0.11 in Rain Light Rain
2:53 PM 66.2 °F 64.4 °F 94% 29.99 in 1.5 mi NNE 15.0 mph - 0.14 in Rain Light Rain
2:56 PM 66.0 °F 64.9 °F 96% 29.99 in 1.8 mi NNE 12.7 mph - 0.15 in Rain Light Rain
3:05 PM 66.2 °F 64.4 °F 94% 29.99 in 3.0 mi NNE 12.7 mph - 0.02 in Rain Light Rain
3:48 PM 68.0 °F 66.2 °F 94% 29.98 in 3.0 mi Variable 6.9 mph 20.7 mph 0.04 in   Overcast
3:56 PM 68.0 °F 66.9 °F 96% 29.98 in 2.5 mi Variable 5.8 mph - 0.04 in   Overcast
4:14 PM 68.0 °F 66.2 °F 94% 29.97 in 1.8 mi Variable 6.9 mph - N/A   Overcast
4:23 PM 68.0 °F 66.2 °F 94% 29.97 in 2.0 mi Variable 5.8 mph - N/A   Overcast
4:56 PM 68.0 °F 66.9 °F 96% 29.96 in 2.5 mi Variable 5.8 mph - N/A   Overcast
5:20 PM 68.0 °F 66.2 °F 94% 29.95 in 1.5 mi NE 4.6 mph - N/A   Overcast
5:31 PM 68.0 °F 66.2 °F 94% 29.95 in 1.8 mi ENE 6.9 mph - N/A   Overcast
5:56 PM 66.9 °F 66.0 °F 97% 29.95 in 1.5 mi Variable 4.6 mph - N/A   Overcast
6:05 PM 66.2 °F 66.2 °F 100% 29.94 in 2.5 mi NE 5.8 mph - N/A   Overcast
6:44 PM 68.0 °F 66.2 °F 94% 29.94 in 5.0 mi NNE 3.5 mph - N/A   Overcast
6:56 PM 68.0 °F 66.9 °F 96% 29.93 in 7.0 mi NE 6.9 mph - N/A   Overcast
7:56 PM 68.0 °F 66.9 °F 96% 29.92 in 9.0 mi NNE 4.6 mph - 0.00 in Rain Light Rain
8:37 PM 68.0 °F 66.2 °F 94% 29.91 in 10.0 mi NNE 4.6 mph - 0.00 in   Overcast
8:56 PM 68.0 °F 68.0 °F 100% 29.91 in 8.0 mi Variable 3.5 mph - 0.00 in   Overcast
9:06 PM 69.8 °F 68.0 °F 94% 29.91 in 2.5 mi ESE 3.5 mph - N/A   Overcast
9:12 PM 69.8 °F 68.0 °F 94% 29.91 in 1.0 mi Calm Calm - N/A   Overcast
9:31 PM 69.8 °F 68.0 °F 94% 29.90 in 1.5 mi Calm Calm - N/A   Overcast
9:47 PM 69.8 °F 68.0 °F 94% 29.90 in 2.0 mi Variable 3.5 mph - N/A   Overcast
9:56 PM 69.1 °F 68.0 °F 96% 29.90 in 4.0 mi Calm Calm - N/A   Overcast
10:38 PM 69.8 °F 68.0 °F 94% 29.89 in 2.5 mi Calm Calm - N/A   Overcast
10:45 PM 69.8 °F 68.0 °F 94% 29.89 in 4.0 mi Variable 3.5 mph - N/A   Overcast
10:56 PM 69.1 °F 69.1 °F 100% 29.89 in 5.0 mi Calm Calm - N/A   Overcast
11:56 PM 68.0 °F 66.9 °F 96% 29.87 in 7.0 mi Calm Calm - N/A   Overcast